Back to catalog

STARLINK-38136

AliveCommunicationsSSO
NORAD 100166·PAYLOAD·🇺🇸 United States

Launched Jul 25, 2026 from Vandenberg Space Force Base

Loading…

Next Passes (next 24 hours)

TLE

FreshSource: Space-Track

Epoch: Sep 14, 2026, 13:27 UTC

1 A0166U 26171U   26257.56056152  .00031182  00000-0  86163-3 0  9994
2 A0166  97.2832 290.0548 0000778 260.8125  99.3032 15.36988129  7982

Track STARLINK-38136 in real time with AllMySat

Download on the App Store